Location: Haieshausen
(51.8387°N, 9.9720°E)
Time: 04:35:35
(UTC+00:00)

UNK - Pass Details

Date: 14 July 2020
Orbit: 667 x 685 km, 98.1° (Epoch: 10 August)

Event Time Altitude Azimuth Distance (km) Brightness Sun altitude
Exits shadow 01:33:04 16° 198° (SSW) 1,759 5.2 -11.5°
Maximum altitude 01:36:26 40° 263° (W) 1,007 4.3 -11.2°
Drops below altitude 10° 01:40:49 10° 333° (NNW) 2,131 6.7 -10.8°
Sets 01:43:12 0° 341° (NNW) 3,054 7.7 -10.6°
